EHI
0 0 0 0 0 0 0 0 0 0 0 0 0 0 0 0 0 0 0 0 0 0 0 0 1 2 4 3 1 0 1 0 0 0 0 1 1 0 0 0 0 0 0
0 0 0 0 0 0 0 0 0 0 0 0 0 0 0 0 0 0 0 0 0 0 0 0 0 2 5 5 2 1 1 0 0 1 1 1 1 0 0 0 0 0 0
0 0 0 0 0 0 0 0 0 0 0 0 0 0 0 0 0 0 0 0 0 0 0 0 0 1 3 5 3 2 1 0 1 2 2 1 1 0 0 0 0 0 0
0 0 0 0 0 0 0 0 0 0 0 0 0 0 0 0 0 0 0 0 0 0 0 0 0 0 1 3 4 2 0 0 0 1 1 0 0 0 0 0 0 0 0
0 0 0 0 0 0 0 0 0 0 0 0 0 0 0 0 0 0 0 0 0 0 0 0 0 0 1 3 3 1 0 0 0 0 0 0 0 0 0 0 0 0 0
0 0 0 0 0 0 0 0 0 0 0 0 0 0 0 0 0 0 0 0 0 0 0 0 0 0 0 2 3 1 0 0 0 0 0 0 0 0 0 0 0 0 0
0 0 0 0 0 0 0 0 0 0 0 0 0 0 0 0 0 0 0 0 0 0 0 0 0 0 0 1 2 1 0 0 0 0 0 0 0 0 0 0 0 0 0
0 0 0 0 0 0 0 0 0 0 0 0 0 0 0 0 0 0 0 0 0 0 0 0 0 0 0 0 1 1 0 0 0 0 0 0 0 0 0 0 0 0 0
0 0 0 0 0 0 0 0 0 0 0 0 0 0 0 0 0 0 0 0 0 0 0 0 0 0 0 0 0 0 0 0 0 0 0 0 0 0 0 0 0 0 0
0 0 0 0 0 0 0 0 0 0 0 0 0 0 0 0 0 0 0 0 0 0 0 0 0 0 0 0 0 0 0 0 0 0 0 0 0 0 0 0 0 0 0
0 0 0 0 0 0 0 0 0 0 0 0 0 0 0 0 0 0 0 0 0 0 0 0 0 0 0 0 0 0 0 0 0 0 0 0 0 0 0 0 0 0 0
0 0 0 0 0 0 0 0 0 0 0 0 0 0 0 0 0 0 0 0 0 0 0 0 0 0 0 0 0 0 0 0 0 0 0 0 0 0 0 0 0 0 0
0 0 0 0 0 0 0 0 0 0 0 0 0 0 0 0 0 0 0 0 0 0 0 0 0 0 0 0 0 0 0 0 0 0 0 0 0 0 0 0 0 0 0
0 0 0 0 0 0 0 0 0 0 0 0 0 0 0 0 0 0 0 0 0 0 0 0 0 0 0 0 0 0 0 0 0 0 0 0 0 0 0 0 0 0 0
0 0 0 0 0 0 0 0 0 0 0 0 0 0 0 0 0 0 0 0 0 0 0 0 0 0 0 0 0 0 0 0 0 0 0 0 0 0 0 0 0 0 0
0 0 0 0 0 0 0 0 0 0 0 0 0 0 0 0 0 0 0 0 0 0 0 0 0 0 0 0 0 0 0 0 0 0 0 0 0 0 0 0 0 0 0
0 0 0 0 0 0 0 0 0 0 0 0 0 0 0 0 0 0 0 0 0 0 0 0 0 0 0 0 0 0 0 0 0 0 0 0 0 0 1 2 1 0 0
0 0 0 0 0 0 0 0 0 0 0 0 0 0 0 0 0 0 0 0 0 0 0 0 0 0 0 0 0 0 0 0 0 0 0 0 0 0 2 3 2 1 1
0 0 0 0 0 0 0 0 0 0 0 0 0 0 0 0 0 0 0 0 0 0 0 0 0 0 0 0 0 0 0 0 0 0 0 0 0 0 1 1 2 2 1
0 0 1 0 0 0 0 0 0 0 0 0 0 0 0 0 0 0 0 0 0 0 0 0 0 0 0 0 0 0 0 0 0 0 0 0 0 0 0 0 0 1 1
1 3 7 6 3 1 0 0 0 0 0 0 0 0 0 0 0 0 0 0 0 0 0 0 0 0 0 0 0 0 0 0 0 0 0 0 0 0 0 0 0 0 0
1 7 17 18 10 3 1 0 0 0 0 0 0 0 0 0 0 0 0 0 0 0 0 0 0 0 0 0 0 0 0 0 0 0 0 0 0 0 0 0 0 0 0
7 18 33 32 19 7 1 0 0 0 0 0 0 0 0 0 0 0 0 0 0 0 0 0 0 0 0 0 0 0 0 0 0 0 0 0 0 0 0 0 0 0 0
29 44 55 47 26 9 1 0 0 0 0 0 0 0 0 0 0 0 0 0 0 0 0 0 0 0 0 0 0 0 0 0 0 0 0 0 0 0 0 0 0 0 0
52 63 66 53 31 12 2 0 0 0 0 0 0 0 0 0 0 0 0 0 0 0 0 0 0 0 0 0 0 0 0 0 0 0 0 0 0 0 0 0 0 0 0
54 63 62 51 35 15 3 0 0 0 0 0 0 0 0 0 0 0 0 0 0 0 0 0 0 0 0 0 0 0 0 0 0 0 0 0 0 0 0 0 0 0 0
Wind_Speed
5 6 11 12 12 12 12 12 12 12 12 13 13 14 13 12 11 11 10 9 9 9 9 8 7 7 7 7 8 9 10 9 8 8 8 7 5 7 8 8 7 4 6
8 6 13 12 11 11 11 11 11 11 12 12 12 13 13 12 11 11 10 9 8 8 8 8 8 8 7 7 8 9 10 9 8 9 9 8 9 9 9 8 8 5 8
11 8 10 13 12 11 11 11 11 11 11 12 12 13 12 11 11 10 10 10 9 8 8 8 8 8 7 7 7 8 8 8 8 10 9 5 5 8 9 9 9 10 9
12 8 8 14 13 11 12 11 11 11 12 12 12 13 12 11 10 10 9 9 9 8 8 8 8 8 8 7 7 6 6 6 9 9 5 5 4 6 8 9 9 9 9
8 6 8 14 13 12 12 11 12 12 12 12 12 12 11 11 10 9 8 9 9 9 8 8 8 8 9 8 8 6 5 7 10 7 4 4 3 5 8 8 7 7 7
7 6 7 14 13 12 12 11 12 12 12 12 12 12 11 11 10 9 8 9 9 9 8 9 9 8 9 9 9 8 7 9 8 4 3 2 2 4 7 7 6 6 6
7 6 6 13 12 12 12 11 12 12 13 13 12 12 12 11 10 9 8 8 8 8 8 8 9 8 8 9 9 8 8 9 5 3 2 2 2 4 6 5 5 6 6
9 7 6 13 13 13 12 12 12 12 13 13 12 12 11 11 10 9 8 7 7 7 6 6 7 8 8 8 8 8 8 8 5 4 3 3 2 4 5 5 5 6 6
6 7 6 7 9 13 13 13 13 13 13 12 12 11 11 10 10 9 8 7 5 4 4 4 6 7 7 6 6 5 6 9 5 3 4 3 4 4 4 6 6 6 6
5 5 5 5 6 6 7 12 13 13 13 12 12 11 11 10 9 9 7 6 5 4 3 3 4 6 6 6 6 7 8 7 4 4 3 3 5 4 4 5 5 4 5
6 4 5 5 4 5 5 9 10 12 13 11 10 11 9 4 4 5 6 6 6 5 3 3 3 5 7 8 9 10 7 3 3 3 2 4 4 3 3 3 2 2 3
7 7 5 6 5 5 5 4 4 4 5 5 4 5 4 3 3 5 6 7 7 5 2 1 2 5 6 4 5 7 3 3 3 3 3 5 3 1 1 1 0 1 2
8 8 8 6 6 6 3 3 3 3 3 4 5 5 4 3 3 3 1 2 3 4 3 3 4 2 2 3 3 3 4 3 3 3 5 6 3 1 1 2 3 3 2
8 9 9 8 6 5 4 3 4 4 4 3 4 5 4 3 3 3 2 2 2 2 2 2 1 1 2 3 4 4 3 2 2 2 4 7 4 2 1 4 4 3 3
9 10 8 8 6 5 5 4 4 4 5 5 4 5 5 4 4 3 3 2 3 2 2 2 2 4 4 4 4 4 3 2 3 3 3 10 9 5 2 2 4 3 4
10 11 9 9 8 7 5 5 4 4 4 5 4 5 5 4 4 4 3 3 3 3 2 2 2 3 4 3 4 4 3 2 3 4 4 6 11 9 4 3 4 3 4
9 9 11 11 9 8 7 6 5 4 5 4 4 5 5 5 5 4 3 3 3 3 3 2 2 2 3 3 3 3 2 2 2 3 4 4 5 10 11 6 6 6 6
8 8 10 11 10 9 7 6 4 4 5 5 4 4 5 6 5 4 4 4 4 4 3 3 3 2 2 2 2 1 1 1 1 2 3 3 3 4 8 12 9 7 7
11 10 10 9 12 11 8 6 4 4 4 4 4 4 5 6 6 5 4 4 4 3 3 4 3 3 3 2 1 1 1 0 0 1 2 3 3 4 4 8 12 11 9
12 11 11 8 9 9 6 4 3 3 3 3 3 4 5 5 6 5 4 4 5 4 4 3 3 2 2 3 2 2 2 1 1 1 1 2 2 3 4 4 4 6 10
13 13 14 11 9 8 5 4 4 3 3 2 3 4 5 5 5 4 3 4 5 5 6 6 3 3 2 3 3 2 2 2 1 1 1 1 1 1 2 2 2 3 3
14 14 14 13 11 9 6 4 3 3 3 2 2 3 4 5 5 4 4 4 4 4 5 5 4 3 2 2 3 3 1 3 2 1 1 1 1 1 1 1 1 2 2
10 11 10 10 8 4 3 3 3 3 3 2 2 2 3 4 5 5 5 5 5 5 5 6 5 6 4 2 2 4 4 3 2 3 2 1 1 1 1 1 1 0 0
5 7 10 11 11 7 4 3 3 4 3 3 2 2 3 4 5 5 6 5 5 4 5 6 5 4 5 3 2 1 2 4 2 2 3 2 2 3 3 2 3 2 2
4 7 9 11 13 9 4 2 2 2 2 2 2 3 3 3 4 5 6 5 5 5 5 5 5 5 4 5 4 3 3 2 2 2 2 3 2 3 3 3 3 3 3
5 6 8 11 13 9 4 2 3 3 4 3 3 4 3 2 3 5 5 5 5 4 4 5 5 6 5 5 4 4 5 5 5 4 3 2 3 3 3 3 4 4 4
Wind_Direction
184 197 167 153 149 149 147 140 132 127 122 116 114 113 111 111 109 105 98 94 87 90 98 100 104 101 104 106 117 127 130 128 123 127 125 112 109 127 123 101 94 96 115
158 180 165 156 150 149 150 150 144 140 130 125 123 121 117 115 111 110 110 108 102 96 103 106 104 101 98 101 118 128 130 132 119 112 107 93 94 106 105 99 93 91 100
154 170 165 161 157 160 155 153 152 148 140 135 132 128 124 121 119 117 115 111 106 100 98 104 104 96 90 92 106 122 127 126 110 90 75 52 68 93 99 96 94 90 93
156 163 165 165 164 163 158 158 154 148 145 140 138 134 131 130 130 123 117 112 109 103 96 95 98 95 85 80 86 105 114 113 107 90 59 41 40 83 96 94 95 95 94
154 155 169 168 168 163 161 159 156 152 148 144 141 139 136 136 133 128 128 122 113 106 97 89 88 88 83 70 68 86 111 109 106 95 71 46 27 87 100 100 100 105 103
151 153 175 173 173 167 165 163 158 153 150 148 145 142 138 136 130 127 131 131 123 114 101 86 78 74 71 64 63 72 88 99 94 93 83 52 11 88 97 104 115 118 118
147 154 174 178 179 172 168 167 161 155 153 151 149 146 142 136 130 126 126 131 131 122 106 90 80 71 64 62 59 64 82 89 84 73 67 51 8 88 103 109 124 127 127
155 158 173 181 180 176 171 169 163 162 159 155 153 149 144 140 136 132 127 130 131 124 111 95 82 73 58 48 48 59 84 84 77 51 37 29 36 95 111 109 111 126 134
157 164 173 173 177 178 173 170 169 166 163 159 155 154 149 147 142 139 136 137 140 139 126 97 83 72 57 38 31 47 92 87 75 49 34 17 62 89 103 105 101 111 122
148 154 160 160 165 167 167 174 174 170 165 162 158 157 154 154 152 148 144 150 157 154 140 94 72 64 61 48 43 59 73 68 59 54 35 21 51 75 88 90 88 101 111
150 149 151 153 157 156 160 178 174 171 168 162 159 162 156 143 137 138 148 162 159 151 130 96 75 69 64 56 80 81 66 34 31 25 12 13 26 49 73 82 83 100 112
175 176 166 165 164 159 170 161 153 155 155 141 138 139 131 129 137 140 173 170 162 149 118 86 53 65 71 49 70 80 70 44 26 6 350 355 347 3 75 91 163 211 162
180 183 179 175 169 163 160 148 146 138 135 136 138 137 136 129 135 131 149 168 140 121 71 34 23 36 83 88 76 65 59 47 23 357 337 346 331 284 217 206 219 220 205
175 189 182 180 173 168 157 156 152 150 147 145 149 150 148 143 143 149 162 159 118 105 114 82 29 67 127 109 100 85 67 56 36 5 343 4 2 325 218 194 201 218 225
183 189 181 175 173 166 158 164 167 161 159 153 155 165 164 157 159 168 180 167 136 134 144 127 123 129 128 120 117 110 92 66 50 36 6 18 21 22 37 183 180 205 216
195 188 178 174 172 167 170 174 174 158 151 152 166 178 175 168 167 173 181 172 149 158 160 144 137 131 129 130 124 121 111 72 46 46 32 15 17 22 40 98 128 131 142
206 192 182 177 169 172 177 183 178 166 157 163 177 186 181 179 176 173 177 182 167 162 159 138 117 103 115 119 124 131 126 100 57 40 36 28 11 18 31 66 102 109 114
201 194 191 183 171 175 178 182 177 169 166 172 179 187 188 188 178 170 182 194 173 158 159 154 140 133 137 138 145 155 142 132 75 36 40 37 25 17 22 43 66 87 106
204 191 192 187 173 177 178 174 170 169 178 179 179 183 191 195 190 183 196 197 170 162 167 172 157 156 161 159 149 99 90 163 264 48 55 43 30 25 23 30 45 56 74
205 190 186 189 174 167 160 150 153 167 185 183 187 190 192 194 187 184 199 191 171 165 169 174 170 157 144 146 116 55 20 14 16 35 50 43 21 24 26 28 22 32 53
202 189 182 179 173 163 155 161 166 180 179 188 200 190 190 192 187 184 187 174 172 173 171 166 160 163 141 134 105 53 0 11 3 334 10 34 346 348 10 22 22 17 32
210 194 182 177 174 177 173 150 142 142 152 159 164 186 185 182 180 182 177 175 174 157 154 164 162 154 146 148 134 116 22 337 325 324 335 243 254 287 270 278 36 40 44
209 192 176 159 146 135 120 107 95 92 93 114 150 175 167 166 168 165 172 170 174 168 176 183 176 166 166 175 161 146 155 210 300 312 287 268 239 243 255 258 227 161 91
194 152 140 131 118 105 115 161 176 170 173 181 165 160 153 158 163 167 169 171 172 176 183 192 186 177 160 168 170 154 140 142 143 297 304 289 258 237 234 232 220 214 212
95 121 126 124 112 110 126 178 208 162 141 135 140 162 164 165 174 177 173 175 180 185 187 180 174 183 182 177 171 163 151 127 150 192 263 297 297 256 230 225 218 213 211
48 92 112 112 100 99 117 175 206 172 161 166 174 176 177 177 184 185 177 181 186 188 185 181 181 189 197 194 192 188 171 161 178 187 198 242 267 275 240 225 220 217 209